Theta_e
349 349 349 347 347 349 350 343 340 343 346 343 342 340 336 336 333 332 332 334 334 337 338 336 343 344 345 347 344 343 344 349 351 348 352 352 355 353 358 360 360 360 361 364 365 366 368 371 374 376 375 374 374 373 372 372 372 371 371 370 369 368 369 368 365 362 360 359 360 362 363 363 362 362
351 351 350 350 348 349 350 347 343 342 342 343 343 343 343 342 338 337 334 336 339 336 339 339 339 346 345 344 342 341 341 351 344 345 347 349 350 350 355 358 357 356 355 356 357 360 361 364 366 370 373 374 373 373 373 372 372 372 371 371 370 370 369 367 362 360 359 358 359 360 361 361 361 361
355 353 349 349 348 348 347 347 346 347 345 344 344 345 346 345 345 342 340 335 340 341 337 339 341 342 343 343 344 343 343 346 346 346 349 349 352 356 364 360 359 356 354 353 355 358 363 364 365 367 369 371 373 372 372 372 372 371 371 371 370 371 369 363 360 359 358 358 358 359 359 360 361 360
352 352 349 349 350 351 349 347 348 344 344 345 344 345 346 346 346 347 345 341 340 343 340 341 344 343 343 344 343 346 346 345 355 351 350 351 356 356 355 356 358 358 354 352 351 352 356 361 364 365 367 369 371 372 372 371 371 371 371 371 370 369 365 361 359 358 358 358 358 358 359 359 359 358
350 353 351 355 353 353 351 346 348 346 344 344 345 347 347 346 349 348 347 343 342 346 346 344 343 342 343 341 344 343 344 345 346 350 354 355 355 353 351 352 352 355 354 352 350 349 349 353 358 361 363 365 367 370 371 370 369 370 369 368 367 364 359 358 358 358 357 357 358 358 358 358 358 356
358 352 353 355 354 354 351 347 347 345 343 344 346 346 346 345 346 350 347 346 345 341 345 342 345 342 343 340 344 344 341 345 349 350 352 353 354 353 354 353 356 352 354 352 350 349 347 349 351 354 358 360 363 365 368 369 368 366 364 361 359 356 355 355 356 357 357 357 357 357 356 356 356 355
358 354 354 353 355 349 348 349 349 349 348 345 346 345 346 346 348 352 353 349 345 342 341 345 341 341 342 342 342 344 343 347 349 349 349 349 351 353 355 354 351 348 351 351 350 348 347 347 347 349 350 352 355 358 358 358 356 354 352 351 350 349 350 351 351 353 356 356 356 355 354 354 354 353
352 350 350 350 353 353 349 344 347 348 349 348 349 348 350 351 350 350 352 352 349 344 340 344 342 342 342 343 343 345 347 347 346 347 349 350 351 352 351 351 353 348 350 352 349 348 346 345 344 344 344 346 348 348 344 343 343 342 342 343 344 345 346 346 346 347 350 352 353 354 353 353 352 352
353 351 348 344 353 354 351 351 349 351 351 352 352 351 350 349 348 348 350 351 351 348 344 344 347 348 347 347 347 348 344 343 344 347 348 350 351 351 351 351 351 348 350 350 348 348 347 346 344 342 342 342 341 340 339 339 338 337 337 337 338 339 340 340 341 341 343 344 346 347 348 348 348 348
353 352 354 356 356 356 353 353 353 353 352 348 342 346 347 348 350 350 350 352 350 349 347 348 346 349 345 344 345 347 347 343 342 345 348 350 351 351 349 349 350 352 351 354 358 350 347 343 342 344 343 340 340 339 339 338 337 336 335 334 334 334 335 336 336 336 337 338 339 340 341 343 344 345
351 352 356 356 354 350 354 353 353 352 351 348 351 349 351 352 352 349 346 349 350 350 350 348 348 345 346 344 341 345 349 347 347 345 344 344 345 347 347 348 347 349 350 350 350 350 351 351 354 342 338 339 339 339 339 339 339 340 336 332 332 333 333 333 334 334 333 334 334 334 335 337 340 342
353 354 354 355 355 355 353 354 356 354 352 350 347 346 352 351 349 348 348 348 347 347 347 346 345 342 340 342 345 346 347 345 346 347 345 341 343 344 347 347 347 351 351 350 350 351 351 351 349 343 341 340 341 341 340 339 341 343 341 335 333 333 332 332 332 332 332 331 331 330 330 330 332 336
348 348 346 346 347 347 347 350 350 350 350 346 343 345 347 347 345 346 345 343 343 342 342 339 340 338 338 339 340 339 340 340 340 344 344 342 343 347 347 349 351 356 356 355 351 350 348 347 348 354 358 360 349 349 344 348 344 345 344 339 335 333 332 332 331 330 330 329 329 329 328 327 326 328
344 345 345 345 346 349 349 349 348 348 348 348 347 344 344 344 345 350 348 344 341 340 339 337 337 335 335 337 338 339 341 343 344 343 344 343 345 349 346 347 350 356 358 354 352 353 351 348 347 348 346 348 360 357 358 356 350 347 339 338 336 334 333 332 331 330 329 328 327 327 328 327 327 326
340 341 342 343 343 344 344 345 346 346 345 345 345 345 345 346 346 345 342 341 344 340 338 337 337 335 336 338 340 340 343 345 347 346 347 347 349 346 342 340 346 354 356 357 354 351 352 351 347 346 346 346 346 347 347 343 342 342 338 336 335 334 333 332 331 331 329 328 327 327 326 326 326 325
338 339 339 340 341 341 342 344 345 345 346 344 343 343 344 344 343 343 346 343 340 340 337 337 339 339 338 338 342 342 343 344 345 348 349 349 345 343 342 341 339 349 354 352 352 350 353 352 349 348 347 347 346 344 341 336 339 337 336 335 334 333 333 332 331 331 330 329 328 327 326 326 326 326
337 338 337 336 337 338 341 341 342 343 343 343 346 346 345 345 343 340 339 341 347 347 345 346 343 340 340 340 342 344 347 346 340 347 345 348 348 346 342 342 344 346 353 353 349 344 345 347 346 345 348 348 346 344 339 337 338 337 336 335 334 333 333 332 331 331 330 329 327 326 325 325 325 325
337 335 339 337 336 339 341 341 342 341 342 342 343 344 347 347 347 344 341 341 341 344 348 345 339 344 346 343 344 348 350 346 342 341 343 347 346 345 343 348 350 351 351 345 346 344 344 345 341 341 344 344 346 346 339 331 335 335 334 334 333 332 332 331 331 330 329 328 327 325 324 324 324 323
337 337 338 339 337 340 341 340 341 342 343 341 338 339 340 342 347 349 347 347 348 350 347 345 342 346 347 345 346 351 350 346 343 341 341 342 340 342 349 350 351 352 352 350 347 337 340 342 340 341 343 343 345 346 336 327 332 333 333 333 332 331 330 330 330 329 329 328 327 325 324 323 322 322
335 337 337 337 336 339 341 340 338 339 343 342 341 337 339 340 341 342 343 340 342 346 346 344 348 346 345 345 352 352 348 342 341 341 343 349 347 345 341 337 342 340 347 350 348 345 341 344 338 338 341 343 344 346 348 332 332 332 332 331 330 330 329 328 328 328 327 327 326 325 324 322 321 320
333 334 336 336 337 338 335 337 332 334 337 338 338 337 339 340 338 338 340 338 335 335 334 333 335 335 334 333 330 329 332 340 341 341 343 344 345 341 337 339 337 337 342 345 348 346 342 346 343 340 341 344 342 342 343 349 332 329 331 329 329 329 328 327 327 326 326 325 325 325 323 321 320 320
330 331 330 331 333 334 335 333 330 331 336 338 336 336 338 336 336 336 338 340 341 333 331 331 331 331 332 332 332 333 333 332 339 342 336 343 344 340 338 334 337 338 338 340 345 343 342 348 346 341 343 344 344 344 346 347 347 330 328 326 327 328 327 326 325 325 325 324 324 323 322 321 321 334
327 328 329 329 330 330 331 325 325 326 332 335 335 333 334 335 336 336 340 338 337 340 340 340 344 345 343 345 346 346 340 338 341 346 344 346 342 339 338 338 336 333 335 341 344 339 341 343 344 343 340 338 341 344 343 345 350 354 356 356 349 329 327 327 326 324 323 323 323 322 321 320 319 341
324 325 326 327 328 325 324 320 317 318 321 330 333 334 333 333 335 339 339 340 339 338 342 342 342 340 341 343 346 348 349 348 346 346 348 347 343 340 340 339 335 331 334 341 345 342 343 345 342 346 343 338 332 337 346 349 351 355 356 354 353 338 332 330 327 322 321 321 320 319 318 318 318 342
321 323 324 326 327 320 320 317 314 314 318 322 328 333 334 334 332 332 335 336 336 339 339 339 341 341 340 339 341 344 343 343 344 347 347 346 346 343 342 337 334 335 338 342 344 344 339 340 337 339 341 343 342 337 342 344 349 349 352 352 351 353 354 353 347 353 326 320 319 317 316 316 315 329
321 322 324 325 326 320 319 316 312 312 314 318 325 328 317 319 322 330 331 333 334 335 336 337 338 339 338 338 339 338 338 338 341 346 343 342 346 344 342 341 338 337 338 347 339 346 342 339 341 341 339 337 337 336 337 341 343 344 349 351 351 351 352 351 350 351 354 353 350 331 335 315 316 317
319 321 322 323 321 313 312 312 312 313 313 321 322 313 317 318 318 326 330 331 331 331 332 334 333 334 336 336 336 338 339 340 342 342 340 342 344 341 341 343 347 343 343 347 346 347 346 342 343 341 339 340 336 338 338 336 338 346 345 347 347 351 347 347 344 344 348 350 351 326 327 319 317 318
321 321 321 320 311 309 307 309 312 314 318 320 312 312 316 320 322 327 329 329 331 330 330 331 331 332 333 334 335 336 338 338 339 339 341 342 344 344 343 345 344 346 345 342 344 344 342 341 341 342 342 337 332 333 333 339 338 339 339 345 343 344 347 348 351 344 344 346 346 347 346 348 349 341
322 317 310 309 308 310 309 310 312 314 317 313 313 313 317 322 325 327 328 329 329 329 329 329 330 331 332 332 334 336 336 336 337 337 337 339 339 340 340 340 340 341 341 342 343 343 339 339 338 338 337 340 337 333 335 335 336 339 342 338 336 339 340 340 342 341 339 340 341 339 339 337 338 336
318 315 313 312 312 313 315 319 320 322 324 322 322 321 322 326 327 328 329 330 329 328 328 328 328 329 330 331 333 334 333 332 330 332 332 332 333 335 335 334 335 339 336 333 333 335 336 336 335 335 336 337 336 335 332 332 332 334 334 333 332 337 333 331 332 333 330 331 331 331 331 331 329 328
323 323 323 322 319 319 320 322 322 322 323 325 325 325 326 328 329 329 329 328 327 326 326 326 326 327 328 330 330 328 328 327 328 329 328 327 328 329 331 330 330 332 327 327 326 328 330 331 330 329 328 328 330 331 328 329 328 327 325 325 325 323 322 326 327 326 326 327 329 328 327 326 326 326
323 324 324 324 325 324 324 324 324 324 324 324 324 323 323 324 325 325 326 326 325 325 326 326 326 327 327 326 326 325 325 325 324 327 327 326 327 328 329 327 326 323 320 320 321 322 323 323 324 323 323 323 323 324 325 322 320 321 321 321 322 321 322 322 322 324 325 326 325 323 321 321 321 322
323 324 323 322 322 322 322 322 322 322 321 321 321 321 321 323 325 325 324 321 322 324 324 322 323 322 324 323 324 324 322 321 321 324 324 324 325 325 324 321 319 319 316 316 319 320 321 320 320 320 319 319 319 321 320 317 318 319 319 319 320 320 321 322 322 321 324 324 321 321 319 320 321 321
323 322 323 323 322 321 321 321 321 321 321 321 322 323 323 324 325 324 323 323 324 324 324 324 324 323 324 323 323 323 322 322 323 322 321 320 322 318 317 317 316 318 318 317 318 321 323 323 323 322 321 319 319 317 319 317 317 319 320 320 319 318 319 322 323 323 323 322 320 318 318 318 319 320
320 321 320 321 322 321 321 322 323 322 321 321 321 321 322 323 323 323 323 325 325 325 325 324 324 325 324 323 323 322 322 322 322 323 324 322 321 319 318 317 316 317 317 317 318 320 322 323 323 322 321 321 318 318 315 317 316 318 319 319 319 318 318 321 321 321 321 323 321 317 316 316 316 318
321 321 320 320 320 321 320 320 321 321 321 322 321 321 321 321 322 322 322 324 324 323 323 322 322 322 322 322 322 322 321 321 321 321 321 321 320 320 320 319 319 319 320 318 318 321 322 321 321 318 315 314 312 311 312 315 314 316 317 317 319 319 320 321 322 322 321 320 320 318 314 312 314 316
320 321 321 320 321 321 320 321 321 321 321 321 321 321 320 320 321 323 324 325 323 322 322 323 321 321 321 321 321 320 320 320 319 321 320 321 320 319 319 319 319 320 319 319 321 321 322 321 321 319 316 313 310 308 311 318 316 314 316 317 317 319 319 320 318 318 318 318 317 318 316 315 314 315
320 319 319 319 320 319 319 319 320 320 320 321 320 319 319 320 322 323 325 323 320 320 321 322 322 321 320 320 320 319 320 320 321 321 319 319 319 319 318 318 318 318 318 319 320 320 321 320 318 318 317 314 312 311 310 314 316 316 313 319 319 318 320 318 316 315 316 317 316 317 318 316 315 315
320 320 319 319 320 321 319 319 318 319 320 320 320 320 320 322 322 323 322 321 322 321 321 322 322 322 321 321 321 321 318 317 318 319 320 319 321 320 319 319 318 319 318 318 319 319 319 318 317 316 316 314 312 313 315 313 313 317 315 310 319 320 319 317 316 316 316 316 318 321 320 319 317 315
320 320 320 320 320 322 321 322 321 322 320 320 321 322 321 320 321 322 322 322 323 323 323 322 322 320 321 321 320 321 321 321 318 318 317 318 318 319 319 320 320 319 318 317 316 317 317 317 318 318 318 318 318 319 319 318 318 319 319 316 310 316 317 317 315 315 316 317 319 318 317 318 316 318
319 319 319 320 320 321 322 322 321 322 323 323 323 323 323 323 322 322 322 322 323 323 321 322 323 323 323 321 322 320 319 319 320 319 319 318 317 318 317 318 318 319 318 317 316 316 318 321 323 323 325 326 325 323 319 315 313 315 316 317 312 311 312 315 319 319 318 320 319 317 316 315 316 316
319 318 319 319 320 321 321 322 322 321 322 322 322 320 322 322 321 321 321 322 324 323 321 321 321 319 319 320 320 318 318 317 317 318 319 317 317 318 317 317 316 317 317 316 317 317 320 326 325 323 327 323 322 316 313 314 313 314 317 318 320 312 311 311 312 312 318 318 317 315 316 316 316 314
318 318 318 319 320 320 319 320 321 321 320 321 321 321 319 318 319 319 318 319 320 319 319 319 320 319 319 318 318 319 318 317 317 317 317 317 317 316 316 317 317 318 317 318 319 321 321 323 323 321 321 320 318 317 314 314 314 316 315 316 318 322 319 311 311 310 310 309 311 315 318 317 316 312
318 318 318 319 318 319 320 320 320 321 321 321 320 320 319 318 318 319 320 318 317 317 318 318 318 319 318 320 319 318 318 317 318 318 317 316 316 317 317 317 317 318 318 319 317 318 319 319 320 319 317 316 316 317 314 315 314 314 315 315 318 318 319 321 317 313 313 312 310 312 312 313 313 314
318 318 317 317 318 319 319 320 319 319 320 319 319 318 318 318 317 318 319 320 320 318 318 318 317 317 318 317 317 317 318 319 319 318 318 317 318 316 317 317 317 317 317 317 317 317 317 318 318 319 318 317 317 316 315 315 315 315 315 316 315 316 316 316 315 315 316 317 312 310 312 313 313 312
Wind_Speed
13 13 15 13 12 12 11 12 13 12 11 11 11 10 10 9 9 8 9 9 9 9 10 9 6 7 8 8 9 9 8 8 6 8 7 8 8 7 8 7 6 5 6 7 8 9 9 11 14 16 17 18 18 19 20 21 22 23 23 23 21 21 22 21 20 19 20 20 21 21 21 21 20 20
12 13 13 13 13 13 13 13 13 11 13 13 12 10 10 8 10 9 10 10 9 10 10 9 8 6 8 9 9 9 9 7 7 11 10 9 9 7 7 7 6 7 8 8 8 8 7 8 9 12 14 16 16 17 18 19 21 21 21 22 22 21 21 21 20 19 20 20 20 21 21 21 20 20
9 10 14 16 14 13 14 14 13 12 14 13 11 11 9 10 9 10 10 11 9 10 11 9 10 9 10 9 10 10 10 10 10 10 10 10 10 2 6 7 9 10 10 9 8 8 7 8 9 10 12 13 14 15 15 17 18 18 19 20 20 21 21 20 19 19 19 20 20 20 20 21 21 20
12 12 12 16 13 12 12 15 11 13 16 13 13 12 11 10 10 10 10 12 12 10 11 11 10 12 11 11 10 10 10 10 10 10 10 10 8 7 9 11 14 13 11 10 9 7 7 7 7 8 9 11 12 13 14 14 15 17 18 18 18 19 19 18 19 19 19 19 20 20 20 20 20 20
16 14 11 9 9 9 10 17 15 13 15 14 13 12 11 11 10 10 11 12 12 10 10 10 10 11 11 11 10 12 11 11 10 10 9 10 10 10 9 9 11 12 13 11 9 8 7 7 7 7 8 9 10 11 12 13 14 15 16 16 17 17 17 17 18 18 19 19 20 20 20 20 20 20
9 12 11 11 11 10 12 16 16 13 13 14 12 12 12 11 11 10 11 11 11 13 10 12 11 11 11 12 10 11 11 11 9 10 10 9 10 9 9 10 8 15 13 11 11 9 9 8 8 8 7 8 9 11 11 11 12 13 14 14 15 15 16 17 17 18 18 19 20 20 20 20 20 20
10 12 11 11 10 10 13 11 13 13 14 14 15 14 12 12 11 10 10 10 12 15 13 12 13 11 10 11 11 11 11 10 10 11 11 11 9 9 9 9 10 9 13 12 11 11 10 9 9 10 10 9 8 9 10 10 11 11 12 13 13 14 15 15 16 17 18 18 19 19 19 20 20 20
10 11 12 12 11 11 12 12 14 12 11 11 11 12 11 11 11 11 11 12 12 14 14 12 13 12 11 11 12 11 10 10 11 11 11 11 11 11 10 11 11 9 14 14 13 11 11 11 11 11 11 10 10 10 10 10 10 10 11 11 12 13 13 14 15 16 17 17 18 18 19 19 20 19
10 12 11 14 12 10 11 11 11 10 12 8 7 8 8 9 10 12 12 12 12 13 14 13 11 11 11 10 11 10 11 11 11 11 11 11 11 11 11 10 9 10 10 13 13 12 13 14 14 13 12 13 12 11 11 11 11 11 11 11 11 11 12 12 14 15 15 16 17 17 18 19 19 19
12 13 13 11 11 11 11 11 10 9 8 2 11 14 13 12 11 11 14 12 13 14 13 13 13 11 11 11 11 11 11 11 11 11 11 11 11 11 11 11 10 10 9 9 11 12 12 14 15 14 13 13 13 13 12 12 12 12 12 12 11 12 12 12 13 14 14 15 16 16 17 17 18 18
13 15 12 12 12 14 13 13 13 12 13 12 13 13 13 12 13 12 14 13 13 12 12 12 12 12 11 11 12 11 10 11 11 11 11 11 10 10 11 11 10 9 10 11 11 11 11 7 6 13 16 14 15 14 13 13 13 13 13 13 13 13 13 13 14 14 14 15 15 15 16 16 17 17
13 13 13 13 12 12 13 13 11 11 10 9 10 15 11 11 13 13 13 13 13 12 13 13 11 12 12 10 10 10 10 10 11 11 11 11 10 10 10 10 9 8 9 10 9 9 11 12 13 11 13 15 15 15 14 15 13 15 14 14 14 14 14 14 14 14 14 14 14 15 15 16 16 16
14 15 16 16 16 16 15 16 15 15 13 13 15 13 13 14 14 13 13 13 13 13 14 14 12 13 12 11 11 11 11 12 12 10 10 11 10 10 9 9 9 9 9 9 10 9 10 11 10 9 9 10 15 15 17 14 17 18 16 16 15 15 14 14 14 13 13 13 13 14 14 14 15 15
13 13 14 14 15 14 15 15 14 13 13 14 15 14 13 13 12 11 11 11 12 13 13 14 13 13 13 13 13 12 12 12 11 11 10 11 9 6 6 8 8 8 8 8 9 9 9 9 10 10 10 9 10 9 10 10 11 15 18 16 15 14 13 13 13 13 13 13 14 14 14 15 15 15
14 14 14 14 15 15 16 16 16 16 17 17 16 17 16 15 14 14 14 13 10 11 12 11 12 13 13 14 12 11 10 9 9 9 9 9 6 5 6 8 6 8 9 8 8 9 8 7 9 10 10 10 11 10 11 14 14 12 16 14 14 14 14 14 14 14 13 13 13 13 13 14 14 14
13 13 13 13 11 12 13 13 13 13 14 16 17 17 17 17 18 17 15 15 13 13 13 13 13 12 13 12 11 10 9 9 9 9 8 8 9 8 8 8 9 3 6 9 7 7 6 7 8 9 9 10 10 12 0 9 12 12 12 13 13 12 12 12 13 13 13 13 13 13 13 13 13 13
13 13 13 13 11 11 14 13 13 12 13 13 14 15 17 18 18 17 17 17 15 14 13 12 12 12 11 12 10 10 4 5 10 9 8 8 8 8 9 9 8 7 6 6 8 9 8 8 9 10 9 9 10 11 10 13 12 12 12 11 11 11 11 12 12 12 12 12 12 13 12 13 13 13
13 13 12 12 12 12 12 12 13 13 12 12 11 11 11 12 14 16 17 18 18 17 14 13 13 12 9 10 10 8 2 4 6 8 10 10 9 9 9 9 8 6 7 9 8 8 8 8 9 10 9 9 10 9 7 12 13 12 11 11 12 12 12 12 12 12 12 12 12 12 12 12 13 13
13 13 12 12 13 12 12 10 11 11 10 10 10 11 11 10 10 9 9 9 9 9 12 13 14 14 12 12 11 7 2 5 8 7 10 9 8 9 8 8 8 8 9 11 9 11 10 8 9 9 9 9 10 9 6 13 12 12 12 13 12 12 13 13 13 12 12 12 12 12 12 13 13 13
13 12 12 12 12 12 11 12 11 10 8 8 10 11 10 10 9 10 9 9 11 11 9 12 12 10 10 6 3 2 3 3 7 10 11 7 6 7 7 10 9 10 7 9 9 9 9 8 10 10 9 9 9 8 8 12 13 14 14 14 14 14 13 13 13 12 12 12 12 13 13 13 13 13
12 12 13 12 12 12 12 11 5 4 8 10 11 10 10 9 8 9 10 9 11 12 13 13 11 10 10 10 8 8 10 9 8 10 10 8 7 8 9 8 9 10 8 7 8 9 9 8 9 10 9 8 9 9 10 8 11 15 15 14 14 14 14 13 12 12 12 12 13 13 13 13 13 13
11 13 16 16 13 13 12 7 7 6 9 9 10 11 9 10 10 10 9 8 7 14 13 10 10 11 12 11 11 11 11 12 10 9 10 9 7 8 9 10 9 9 9 8 7 8 9 8 9 9 9 9 9 10 9 10 7 10 12 14 15 15 14 13 13 13 13 13 13 13 13 12 10 7
11 11 12 15 13 11 12 12 11 10 12 10 10 11 9 9 9 9 8 7 8 4 5 7 8 7 9 9 10 11 13 13 12 11 11 8 9 9 9 8 8 11 9 8 9 10 9 9 8 8 7 9 9 9 9 8 8 7 7 7 10 15 15 13 13 13 14 13 12 12 12 11 7 6
12 12 12 12 12 7 6 4 6 6 9 9 10 11 9 9 10 7 6 5 6 8 6 5 6 7 8 8 7 8 8 9 12 12 10 9 9 9 9 9 9 10 8 6 4 5 7 8 8 7 8 8 8 5 4 5 6 6 6 7 7 8 12 13 11 14 13 12 13 12 11 9 8 6
12 11 10 10 8 9 5 5 6 6 6 7 8 8 7 6 6 6 6 7 10 7 7 7 7 6 6 7 9 6 5 6 6 8 9 8 8 8 8 9 10 10 9 8 4 6 6 4 7 9 7 7 8 9 6 7 6 7 7 7 8 6 6 8 8 9 13 16 14 13 11 10 11 9
10 11 10 10 9 6 3 3 4 6 5 7 7 5 7 8 11 7 6 7 7 6 7 7 7 7 6 6 5 5 6 8 9 6 6 8 7 5 8 9 9 9 8 1 7 2 4 8 9 9 8 7 7 8 10 7 7 8 9 7 8 8 5 6 6 6 3 4 5 4 5 10 10 12
10 9 9 10 8 9 7 5 5 5 6 10 1 5 7 6 6 8 7 7 7 6 7 8 9 8 8 8 8 6 5 6 4 1 6 7 5 6 8 10 8 9 8 8 9 7 6 9 8 8 8 7 9 10 9 8 7 5 9 7 6 3 3 5 7 8 7 6 2 10 7 10 9 10
8 8 7 6 5 6 2 1 2 3 5 6 10 9 3 5 6 7 8 7 7 7 7 8 9 9 8 8 8 8 8 6 7 8 7 6 6 6 7 7 7 8 9 10 9 7 7 8 7 7 8 8 10 9 9 7 8 8 9 7 7 4 4 2 3 4 6 6 9 7 7 3 1 2
7 7 8 8 7 5 5 3 3 5 8 10 10 9 8 8 6 6 6 6 6 7 7 7 8 8 7 7 8 8 8 8 7 8 8 9 9 9 9 10 10 9 9 7 7 6 6 6 6 6 8 7 6 8 8 9 9 8 6 6 8 6 6 7 6 5 5 6 6 6 6 6 6 6
7 5 6 7 7 7 4 2 2 3 2 5 8 7 6 3 3 4 4 4 5 6 7 7 7 7 7 7 7 7 6 7 7 7 8 8 8 7 7 8 7 4 9 10 9 8 7 6 6 6 6 6 6 7 7 7 5 4 5 4 6 5 6 6 6 5 6 5 5 5 5 6 6 7
11 12 11 5 5 5 4 4 2 3 3 3 3 3 3 3 6 7 6 5 6 6 6 7 7 7 7 7 8 7 6 6 6 5 5 6 6 6 6 5 7 3 9 9 9 8 7 6 5 5 3 4 4 4 5 5 4 5 5 5 6 3 6 6 5 5 5 5 4 4 5 5 6 7
11 9 10 12 9 9 9 10 10 10 10 10 9 8 9 9 8 10 11 9 6 5 5 4 4 5 5 5 6 5 5 5 5 6 5 5 5 4 3 3 3 6 7 8 8 10 10 9 7 7 7 6 4 4 5 6 6 5 5 5 4 4 5 6 6 6 6 4 2 5 5 6 6 6
6 8 9 8 9 10 11 11 11 9 10 10 10 11 10 7 6 7 7 8 7 6 6 6 6 6 6 7 6 5 6 7 7 7 5 6 6 6 6 6 5 4 5 5 6 6 7 9 9 10 10 10 10 8 6 6 6 5 5 5 5 5 5 5 6 6 5 3 4 4 6 6 6 6
7 9 8 7 7 8 8 7 7 8 9 9 9 8 9 9 8 8 8 7 6 6 7 7 6 7 6 6 5 6 6 5 6 7 7 7 7 7 7 7 6 6 6 5 5 4 3 2 3 5 7 9 9 11 8 6 6 5 4 4 5 5 5 5 5 6 5 4 3 5 5 6 6 6
12 12 11 10 9 8 8 7 7 8 11 11 12 12 11 11 10 9 9 7 8 9 9 9 8 7 7 7 7 8 8 8 8 9 8 9 8 8 6 6 6 5 5 5 4 4 4 3 2 2 2 2 5 6 11 9 6 6 5 6 5 5 6 5 5 5 5 4 4 5 6 6 6 7
12 12 12 12 11 10 12 12 13 13 13 13 12 12 12 11 11 11 11 9 9 9 9 9 9 9 9 9 9 9 9 9 9 9 9 9 8 7 6 7 6 6 5 5 5 3 3 3 1 2 4 4 5 6 8 9 11 6 5 4 4 4 3 3 3 4 6 7 7 6 6 6 7 9
12 12 12 12 12 11 12 12 11 11 11 10 10 10 10 10 10 10 9 8 8 8 8 8 8 8 8 8 8 8 8 8 9 9 10 9 9 9 8 7 8 7 9 9 7 7 6 7 6 6 6 8 9 9 8 6 9 10 6 6 5 5 4 3 2 5 6 6 7 7 6 6 6 8
11 11 11 11 11 11 11 11 11 11 10 10 10 10 10 10 10 9 9 9 10 9 9 9 8 8 8 8 8 8 8 8 8 8 8 8 8 9 9 9 9 9 9 9 8 8 8 8 8 8 7 7 7 7 7 7 7 8 9 7 6 5 5 6 7 7 6 5 6 5 5 7 6 5
11 11 11 11 10 10 11 11 11 11 11 10 10 9 9 9 9 9 9 10 9 9 9 9 9 9 8 8 8 9 9 9 9 8 8 9 9 8 8 8 8 8 8 9 9 9 9 9 9 8 8 7 8 7 7 8 8 5 7 9 5 4 4 4 4 3 5 4 2 3 4 2 3 5
11 10 10 10 10 9 9 9 9 9 10 10 10 9 9 9 10 9 9 9 9 9 9 9 9 8 9 9 8 8 8 9 9 9 9 8 8 8 8 7 7 7 7 9 9 9 9 7 5 5 5 6 6 7 7 7 7 6 6 7 8 5 5 5 4 3 3 1 2 3 4 3 5 3
10 10 10 10 9 9 9 9 9 9 9 8 8 9 9 9 9 9 9 9 9 8 8 8 8 8 8 8 8 8 8 8 8 7 7 8 8 8 8 8 8 7 7 8 7 7 7 3 3 4 2 5 5 7 5 4 6 6 6 5 5 7 7 7 5 5 4 4 2 2 3 3 4 3
9 9 9 9 10 9 9 9 9 9 9 8 8 8 8 7 8 8 8 8 7 8 8 8 8 8 8 8 8 8 8 8 8 8 8 7 7 7 7 7 7 7 7 7 6 6 5 2 7 8 7 4 5 1 6 5 5 5 4 4 5 4 4 7 12 9 7 6 7 7 5 2 2 5
9 9 9 9 9 9 9 9 8 8 8 8 8 8 8 8 8 8 8 8 8 8 8 8 8 7 7 8 8 8 7 8 8 8 8 8 7 7 7 7 6 6 6 5 5 4 4 5 4 4 4 4 4 4 4 4 4 3 3 3 3 3 6 3 7 13 12 12 9 7 5 6 6 6
9 8 8 8 8 8 8 8 8 8 8 8 7 7 8 8 8 8 8 8 8 8 8 7 7 7 7 7 6 7 7 7 7 6 7 7 7 7 6 7 6 6 5 5 5 5 4 5 4 4 5 7 6 6 6 5 6 5 5 4 2 3 3 6 6 10 12 11 11 9 10 10 8 7
8 8 8 8 8 8 8 8 8 8 8 8 8 8 8 8 8 8 8 8 8 8 8 8 8 7 7 7 7 7 6 6 6 6 6 6 6 6 7 6 5 5 5 5 4 4 4 3 3 3 4 5 4 4 5 4 4 4 4 4 5 4 4 3 0 3 6 5 7 8 7 8 10 11
Wind_Direction
249 248 244 248 249 248 243 252 266 268 268 273 270 265 272 277 274 273 277 272 284 291 292 293 292 294 290 284 283 281 279 275 269 276 279 269 266 234 186 206 224 240 258 260 257 257 255 254 252 248 242 238 234 231 230 230 230 230 232 228 221 220 222 223 224 223 221 220 220 221 223 225 227 228
243 245 255 251 250 248 245 241 253 267 267 252 258 258 262 267 268 268 268 272 276 281 281 285 291 286 285 285 286 288 289 291 287 275 275 277 272 268 197 217 224 234 241 248 251 248 245 241 246 252 249 244 241 237 233 231 231 229 228 230 230 223 222 224 224 224 223 222 221 222 223 224 225 227
245 258 256 256 254 263 261 257 249 240 252 258 255 262 260 265 266 266 262 269 261 270 280 282 289 293 283 279 284 286 288 296 297 283 277 275 278 257 235 228 232 229 227 233 238 246 239 245 246 246 249 247 243 240 236 234 232 230 229 227 226 228 226 225 225 224 224 224 223 222 223 224 225 226
242 226 238 255 257 260 278 274 256 274 270 260 261 262 262 257 251 256 256 259 267 261 275 284 285 280 279 279 279 279 280 272 246 263 262 265 283 254 262 234 230 224 214 217 228 234 242 249 254 253 251 251 247 241 237 235 233 232 231 229 228 228 228 226 225 225 224 225 225 225 225 225 226 226
263 259 248 238 249 258 251 260 261 251 254 260 259 258 258 259 256 249 248 256 263 262 265 274 279 282 284 277 279 285 284 282 280 275 268 263 262 266 265 262 223 205 205 210 211 225 237 243 252 255 251 250 253 248 241 236 234 234 234 232 230 229 228 226 225 224 224 225 225 226 227 227 227 227
251 261 251 236 234 232 236 256 263 257 262 264 258 259 260 257 258 251 249 253 259 268 267 272 271 274 274 275 267 271 278 281 280 270 266 263 259 261 267 264 248 188 202 200 201 212 224 233 242 249 250 244 245 248 247 239 235 235 235 234 232 230 229 227 226 224 224 224 225 225 227 227 228 228
261 260 259 253 244 247 256 265 261 256 260 261 259 258 258 261 259 252 247 251 259 267 267 266 273 268 267 273 276 272 274 283 282 276 268 264 259 257 252 255 260 197 195 196 200 202 211 224 230 238 244 248 245 243 245 246 245 239 236 235 235 233 232 229 228 227 226 225 225 226 226 227 228 228
274 270 265 265 258 257 256 245 255 256 253 254 255 258 258 253 251 254 249 243 253 266 266 262 268 271 274 272 272 271 267 267 266 264 265 260 262 261 253 250 256 229 192 198 199 199 207 215 226 232 238 239 241 242 241 243 242 242 241 240 238 237 236 235 233 232 230 228 226 226 226 227 227 228
277 271 272 271 269 265 262 261 252 249 253 252 257 263 259 258 261 263 255 251 253 258 260 261 256 259 263 266 270 270 271 269 268 262 257 260 259 258 259 261 257 268 185 193 199 203 210 217 221 226 229 233 237 237 237 238 240 240 240 239 238 238 237 235 235 234 234 232 231 228 228 227 228 227
282 278 270 267 269 268 267 263 259 258 255 304 283 264 259 257 255 259 259 251 252 254 254 253 262 254 261 269 265 264 261 266 268 266 263 260 256 255 257 253 248 244 243 237 217 212 225 225 223 219 221 227 230 236 235 232 232 235 238 238 237 236 234 233 231 231 232 234 233 233 231 231 229 229
256 264 260 259 258 259 251 248 246 242 242 239 239 255 246 252 253 245 250 252 249 247 247 249 253 262 261 262 267 261 258 260 261 264 268 265 261 253 250 253 255 251 247 244 251 265 277 266 224 208 216 215 222 225 228 230 228 228 228 229 230 231 232 231 228 226 227 228 231 233 234 234 234 233
272 270 266 260 260 259 262 258 249 253 251 254 254 250 249 244 248 252 252 250 250 248 254 256 258 261 268 260 255 258 260 259 254 251 259 266 267 262 258 255 255 260 260 259 247 215 221 241 247 231 211 214 215 217 221 225 228 225 224 222 223 226 227 228 229 229 229 229 229 230 231 232 234 236
273 269 268 268 264 268 268 265 267 269 274 267 264 261 257 258 258 257 256 253 252 253 256 261 264 267 264 262 259 256 253 253 258 258 256 258 260 263 264 261 257 251 250 250 254 254 255 252 247 228 222 213 208 216 219 223 215 223 223 221 219 222 224 227 228 229 229 230 231 233 234 236 236 237
276 275 274 275 279 280 282 283 280 275 267 261 262 267 267 266 263 257 256 257 253 252 256 259 262 265 262 261 258 257 256 260 263 260 255 256 261 279 292 293 274 258 247 248 249 253 250 254 257 257 251 248 208 235 207 221 227 205 215 216 218 219 222 224 229 229 230 229 230 230 232 233 233 234
276 274 274 273 273 273 268 262 257 256 256 255 253 253 257 262 265 270 267 263 265 265 265 266 265 263 265 263 265 263 264 264 262 260 259 260 254 259 263 265 254 246 255 240 253 256 260 260 264 260 257 249 249 242 244 211 209 180 194 203 211 217 216 220 221 226 228 231 232 234 235 235 236 236
276 276 275 273 272 271 269 273 273 266 252 245 247 251 252 251 251 253 260 267 265 262 265 267 263 269 266 269 264 264 261 256 255 256 259 256 261 260 253 251 257 236 258 257 251 255 252 254 258 262 255 254 259 262 31 143 154 161 175 191 205 213 219 220 221 222 225 227 232 234 236 238 238 239
273 272 274 274 273 272 272 266 265 267 270 263 249 240 243 247 248 248 248 249 257 269 267 266 271 262 268 272 273 271 293 347 294 270 256 257 254 252 254 257 265 256 231 249 260 266 264 256 249 250 256 260 256 253 173 166 163 181 183 195 206 216 223 228 228 230 228 229 230 232 234 237 238 240
287 284 284 281 278 273 270 269 269 271 274 276 275 267 255 250 244 237 237 243 246 249 259 262 263 266 261 268 275 285 294 248 242 264 268 263 256 251 256 262 266 281 288 259 263 264 259 258 263 262 262 259 260 255 243 176 187 187 196 206 217 221 228 229 232 233 234 234 235 234 233 234 236 239
289 289 284 279 277 277 278 274 281 285 283 281 280 281 284 277 271 257 242 244 251 248 247 256 258 261 264 263 257 249 235 247 249 250 265 278 297 301 294 273 251 252 242 251 250 260 265 263 259 262 260 259 258 261 198 167 188 198 206 217 220 228 230 232 233 234 236 238 237 237 237 235 236 237
289 286 283 281 278 277 276 276 286 285 284 288 281 278 276 277 277 276 257 216 230 239 247 251 255 267 276 302 307 240 194 247 265 261 253 233 234 254 265 262 261 257 247 238 241 255 263 260 268 270 268 268 272 267 270 167 188 197 209 212 220 227 233 235 237 238 238 238 237 236 236 237 238 238
287 286 286 288 288 282 276 285 299 251 277 277 279 278 277 277 278 276 271 222 215 235 236 251 261 262 268 268 254 241 229 211 239 262 256 248 245 253 256 258 262 259 253 244 240 251 262 260 261 264 259 267 268 271 268 265 190 200 206 210 217 225 231 237 240 241 240 238 238 238 237 237 237 239
286 286 285 286 288 288 289 318 6 312 277 266 266 267 268 279 280 276 279 278 240 206 223 233 251 258 260 265 259 246 239 230 220 242 249 251 248 247 252 260 262 266 263 254 243 245 249 259 262 266 268 266 259 254 257 257 251 186 203 207 213 220 226 230 234 239 241 239 238 238 238 238 237 242
290 288 284 280 281 284 291 316 325 328 311 285 278 273 275 276 277 282 294 305 304 334 298 259 244 240 244 252 260 256 242 233 230 237 248 256 255 254 257 261 274 270 257 256 253 252 255 254 255 263 268 264 263 260 254 256 255 252 241 212 207 212 219 222 228 230 234 237 237 238 236 236 216 244
290 288 287 285 276 273 291 18 28 7 3 319 292 286 289 282 281 314 314 316 315 301 298 300 292 289 293 269 250 249 251 234 236 241 242 245 244 250 253 250 251 264 279 290 323 277 283 275 272 259 262 278 276 261 264 254 247 250 254 258 269 207 209 223 225 226 232 231 235 234 231 222 201 234
292 290 287 290 317 60 40 36 25 21 14 351 323 297 295 336 7 350 317 331 332 309 294 292 290 279 267 276 265 256 236 252 251 242 242 238 241 249 261 265 261 262 271 286 5 272 267 303 291 285 282 280 291 287 280 275 262 262 263 264 262 258 236 218 222 230 210 225 224 221 217 209 194 214
286 290 291 292 303 352 22 50 24 8 359 346 301 343 22 13 15 358 321 304 301 299 297 290 285 283 278 266 272 271 280 260 247 237 236 225 228 254 252 257 264 270 273 301 87 256 260 260 259 273 274 272 278 280 281 274 281 285 273 267 264 263 283 301 286 276 269 203 217 203 210 197 197 204
292 289 291 289 354 24 17 17 15 358 335 289 274 31 339 357 332 309 289 285 284 284 288 291 290 293 290 288 286 272 253 277 279 163 258 272 235 223 254 259 261 265 266 275 278 273 266 271 270 269 275 272 274 275 276 283 285 290 275 267 282 308 355 344 335 319 308 292 260 151 214 187 199 202
324 330 332 333 353 312 347 280 306 327 308 304 315 305 314 299 301 284 278 269 268 272 273 276 281 284 291 294 291 289 293 291 308 313 305 286 284 279 271 273 271 268 284 284 279 282 276 269 261 256 265 274 271 270 280 282 277 276 275 314 290 306 4 334 294 292 298 313 325 318 307 297 67 228
342 335 315 315 316 289 258 239 234 244 255 256 261 269 279 281 260 250 254 270 279 279 278 276 280 284 283 286 293 317 320 319 317 311 300 295 287 283 279 278 276 276 272 291 303 299 293 301 310 302 277 263 265 268 266 277 287 292 309 316 302 317 344 9 345 348 358 344 353 357 5 359 350 351
315 299 304 293 278 256 227 210 232 246 259 236 237 241 246 252 238 244 260 266 270 278 292 304 306 313 326 333 351 358 352 334 311 315 308 308 310 310 308 296 290 304 42 38 27 10 357 356 358 348 319 302 303 304 308 302 299 323 14 358 338 327 48 4 1 355 2 358 3 11 15 11 17 8
34 37 31 14 322 324 334 330 349 312 292 272 235 230 229 7 28 31 19 10 7 355 346 333 336 337 334 336 336 348 359 344 340 334 311 302 296 301 301 309 295 349 45 38 37 24 13 18 20 15 340 329 321 351 5 6 356 10 18 6 11 349 352 343 353 352 351 345 348 31 31 18 19 19
32 31 32 39 44 53 59 58 57 52 49 50 51 47 48 51 52 54 55 57 47 38 37 35 34 33 32 35 40 39 35 22 13 350 349 344 315 315 312 305 12 51 49 42 42 42 38 41 45 50 49 35 32 24 55 51 37 26 28 28 36 33 16 6 357 0 347 337 30 60 43 38 28 21
30 41 41 40 43 48 54 55 56 56 56 57 60 61 58 50 49 49 48 54 50 43 43 47 47 45 42 48 42 32 39 37 34 16 22 13 20 31 46 57 53 54 67 53 51 50 49 53 57 62 61 55 44 39 53 63 45 31 37 37 34 37 26 26 17 11 4 27 56 62 59 44 32 24
45 48 47 42 52 52 56 54 55 60 63 66 67 65 67 61 54 55 56 58 59 61 60 57 55 56 63 65 57 61 66 63 52 39 36 42 35 47 44 56 57 57 62 57 41 39 72 109 101 76 69 65 59 49 35 45 61 46 35 38 38 42 25 18 25 20 18 20 52 70 57 47 38 22
58 58 56 48 48 53 60 68 75 78 72 71 71 70 70 68 66 65 60 63 66 64 65 63 65 68 66 69 66 61 59 60 61 66 65 60 53 50 48 52 49 44 45 41 24 3 8 2 354 42 68 77 75 69 53 39 19 23 35 39 41 37 32 25 30 37 41 50 55 61 52 44 32 26
58 57 61 62 60 55 57 59 60 59 61 60 61 64 64 61 60 58 56 54 59 64 64 63 62 60 59 59 59 59 59 55 55 57 58 61 69 81 77 72 69 71 68 61 60 43 47 39 1 72 62 52 52 54 38 46 47 4 21 39 29 32 27 7 26 24 32 40 37 46 50 42 34 25
52 52 50 54 52 50 56 55 53 54 55 57 57 55 55 54 50 51 54 62 66 60 53 51 49 47 48 46 49 49 53 58 62 59 62 62 59 59 69 72 69 61 56 51 48 52 46 51 52 63 66 59 57 57 45 20 39 38 14 31 35 19 11 11 31 57 42 45 42 42 48 43 40 37
41 41 43 43 45 46 47 48 49 48 51 53 55 57 58 58 53 49 46 49 52 54 53 52 50 51 54 54 54 54 55 49 47 51 53 58 63 67 64 65 67 71 68 62 60 55 48 50 47 48 48 58 67 61 62 46 39 26 13 18 40 31 10 32 35 37 53 51 55 39 38 46 49 53
36 36 37 39 39 43 46 47 48 48 45 44 46 48 48 48 48 47 47 47 41 45 47 46 46 42 45 54 55 54 55 56 56 52 46 42 39 45 49 52 57 56 63 68 64 57 56 55 55 55 57 65 67 71 72 76 61 54 31 23 12 37 36 35 39 48 33 44 65 66 58 108 131 145
35 37 35 36 37 38 42 44 48 50 52 48 44 40 43 46 44 41 40 42 47 47 48 48 43 48 49 42 46 53 51 58 62 62 56 51 51 50 46 47 55 61 62 63 64 64 62 73 87 93 101 102 116 117 113 104 97 89 80 47 17 29 16 1 19 46 112 189 202 83 85 113 62 83
36 35 36 32 35 36 36 38 43 43 46 50 56 51 46 40 43 46 39 36 35 40 46 43 42 42 43 47 45 43 48 47 45 50 65 68 56 49 52 57 56 53 59 63 64 60 54 61 159 206 182 126 128 187 171 86 59 61 73 97 80 36 36 37 33 23 19 349 327 94 66 77 116 116
34 37 33 33 32 31 33 33 34 40 41 36 37 44 47 50 47 40 50 36 41 43 40 40 42 41 42 36 40 48 47 44 46 44 39 43 59 59 50 50 56 56 55 58 58 59 53 164 202 219 229 176 186 86 56 53 56 50 41 49 107 122 80 66 78 64 43 21 11 23 10 360 56 51
32 35 32 30 32 28 28 29 28 29 38 39 36 31 42 43 40 38 42 42 36 37 41 41 38 38 41 45 40 34 44 48 44 45 42 37 40 51 50 43 47 55 59 64 71 72 56 53 66 72 62 65 56 56 64 67 80 91 76 41 60 140 126 150 109 88 68 52 37 39 10 355 10 46
28 28 30 24 27 28 25 24 25 23 24 34 36 36 32 37 45 40 36 38 39 36 35 40 37 34 33 34 44 45 32 35 44 37 49 52 43 32 41 54 42 41 48 57 58 53 57 55 47 41 51 42 33 32 35 42 47 29 37 52 51 40 125 162 153 128 100 62 36 34 40 46 55 60
22 24 24 25 24 25 21 20 18 22 18 22 31 31 32 32 34 40 39 30 35 40 35 34 38 37 32 33 28 32 43 31 29 37 34 37 42 50 38 22 37 49 43 32 36 54 48 58 62 55 56 57 57 67 65 31 18 52 48 22 38 44 37 23 250 37 67 85 47 34 50 66 80 87